Voltar ao catálogo

STARLINK-31179

AtivoComunicaçõesVLEO
NORAD 58750·PAYLOAD·🇺🇸 United States

Lançado Jan 7, 2024 de Cape Canaveral Space Force Station

Loading…

Próximas Passagens (próximas 24 horas)

TLE

AtualizadoSource: CelesTrak SupGP

Época: Sep 15, 2026, 03:27 UTC

1 58750C 24005Y   26258.14423611 -.00015479  00000+0 -56071-3 0  2588
2 58750  43.0008 230.0321 0001494 265.9987 173.4411 15.27582635    13

Acompanhe STARLINK-31179 em tempo real com AllMySat

Download on the App Store